Time,TemperatureF,DewpointF,PressureIn,WindDirection,WindDirectionDegrees,WindSpeedMPH,WindSpeedGustMPH,Humidity,HourlyPrecipIn,Conditions,Clouds,dailyrainin,SoftwareType,DateUTC
2013-03-11 00:00:00,55.9,40.9,29.97,SSW,206,2.0,14.0,57,0.00,,---,0.00,VWS V12.07,2013-03-11 04:00:00,
2013-03-11 00:30:00,55.9,41.3,29.97,West,269,4.0,17.0,58,0.00,,---,0.00,VWS V12.07,2013-03-11 04:30:00,
2013-03-11 01:00:00,55.0,41.0,29.97,South,188,3.0,8.0,59,0.00,,---,0.00,VWS V12.07,2013-03-11 05:00:00,
2013-03-11 01:30:00,54.4,42.1,29.96,WSW,254,3.0,4.0,63,0.00,,---,0.00,VWS V12.07,2013-03-11 05:30:00,
2013-03-11 02:00:00,53.3,43.4,29.96,NW,306,3.0,4.0,69,0.00,,---,0.00,VWS V12.07,2013-03-11 06:00:00,
2013-03-11 02:30:00,53.5,44.7,29.95,WSW,238,1.0,3.0,72,0.00,,---,0.00,VWS V12.07,2013-03-11 06:30:00,
2013-03-11 03:00:00,53.3,45.9,29.94,South,190,4.0,7.0,76,0.00,,---,0.00,VWS V12.07,2013-03-11 07:00:00,
2013-03-11 03:30:00,53.2,46.5,29.94,SE,140,7.0,11.0,78,0.00,,---,0.00,VWS V12.07,2013-03-11 07:30:00,
2013-03-11 04:00:00,53.6,46.9,29.92,NNW,328,3.0,11.0,78,0.00,,---,0.00,VWS V12.07,2013-03-11 08:00:00,
2013-03-11 04:30:00,53.5,47.5,29.90,SSE,152,3.0,14.0,80,0.00,,---,0.00,VWS V12.07,2013-03-11 08:30:00,
2013-03-11 05:00:00,53.6,47.6,29.90,SSW,193,6.0,9.0,80,0.00,,---,0.00,VWS V12.07,2013-03-11 09:00:00,
2013-03-11 05:30:00,53.6,47.3,29.91,SSE,152,6.0,12.0,79,0.00,,---,0.00,VWS V12.07,2013-03-11 09:30:00,
2013-03-11 06:00:00,53.5,47.5,29.91,South,182,3.0,6.0,80,0.00,,---,0.00,VWS V12.07,2013-03-11 10:00:00,
2013-03-11 06:30:00,53.3,47.6,29.93,South,184,0.0,7.0,81,0.00,,---,0.00,VWS V12.07,2013-03-11 10:30:00,
2013-03-11 07:00:00,53.3,48.0,29.94,South,180,7.0,15.0,82,0.00,,---,0.00,VWS V12.07,2013-03-11 11:00:00,
2013-03-11 07:30:00,52.9,48.2,29.93,West,277,2.0,10.0,84,0.00,,---,0.00,VWS V12.07,2013-03-11 11:30:00,
2013-03-11 08:00:00,52.5,48.4,29.92,SSE,161,3.0,9.0,86,0.00,,---,0.00,VWS V12.07,2013-03-11 12:00:00,
2013-03-11 08:30:00,52.6,48.5,29.91,SSE,163,3.0,11.0,86,0.00,,---,0.00,VWS V12.07,2013-03-11 12:30:00,
2013-03-11 09:00:00,52.9,48.5,29.90,SSW,209,9.0,11.0,85,0.00,,---,0.00,VWS V12.07,2013-03-11 13:00:00,
2013-03-11 09:30:00,53.2,48.8,29.89,South,179,4.0,18.0,85,0.00,,---,0.00,VWS V12.07,2013-03-11 13:30:00,
2013-03-11 10:00:00,53.2,48.5,29.89,SSW,198,7.0,11.0,84,0.00,,---,0.00,VWS V12.07,2013-03-11 14:00:00,
2013-03-11 10:30:00,52.9,48.5,29.86,South,182,12.0,15.0,85,0.00,,---,0.00,VWS V12.07,2013-03-11 14:30:00,
2013-03-11 11:00:00,53.2,48.8,29.87,South,173,4.0,7.0,85,0.00,,---,0.00,VWS V12.07,2013-03-11 15:00:00,
2013-03-11 11:30:00,53.5,48.8,29.84,SSW,203,3.0,13.0,84,0.00,,---,0.00,VWS V12.07,2013-03-11 15:30:00,
2013-03-11 12:00:00,53.9,49.2,29.86,SE,124,5.0,6.0,84,0.00,,---,0.00,VWS V12.07,2013-03-11 16:00:00,
2013-03-11 12:30:00,55.0,49.3,29.86,South,169,1.0,5.0,81,0.00,,---,0.00,VWS V12.07,2013-03-11 16:30:00,
2013-03-11 13:00:00,55.9,48.8,29.84,WSW,242,3.0,12.0,77,0.00,,---,0.00,VWS V12.07,2013-03-11 17:00:00,
2013-03-11 13:30:00,56.0,48.5,29.81,South,172,2.0,10.0,76,0.00,,---,0.00,VWS V12.07,2013-03-11 17:30:00,
2013-03-11 14:00:00,56.5,48.3,29.77,WSW,258,4.0,11.0,74,0.00,,---,0.00,VWS V12.07,2013-03-11 18:00:00,
2013-03-11 14:30:00,56.5,48.0,29.76,ESE,123,4.0,18.0,73,0.00,,---,0.00,VWS V12.07,2013-03-11 18:30:00,
2013-03-11 15:00:00,56.5,48.0,29.74,SE,135,5.0,15.0,73,0.00,,---,0.00,VWS V12.07,2013-03-11 19:00:00,
2013-03-11 15:30:00,56.6,48.8,29.73,SE,137,0.0,9.0,75,0.00,,---,0.00,VWS V12.07,2013-03-11 19:30:00,
2013-03-11 16:00:00,54.5,51.3,29.74,South,177,2.0,5.0,89,0.02,,---,0.02,VWS V12.07,2013-03-11 20:00:00,
2013-03-11 16:30:00,54.1,52.4,29.76,NE,49,0.0,5.0,94,0.09,,---,0.09,VWS V12.07,2013-03-11 20:30:00,
2013-03-11 17:00:00,53.6,52.5,29.77,NNW,328,0.0,0.0,96,0.35,,---,0.38,VWS V12.07,2013-03-11 21:00:00,
2013-03-11 17:30:00,53.1,52.3,29.77,NNE,30,0.0,0.0,97,0.43,,---,0.50,VWS V12.07,2013-03-11 21:30:00,
2013-03-11 18:00:00,52.9,52.3,29.77,NNE,30,0.0,0.0,98,0.21,,---,0.57,VWS V12.07,2013-03-11 22:00:00,
2013-03-11 18:30:00,52.3,51.8,29.78,East,91,0.0,0.0,98,0.17,,---,0.68,VWS V12.07,2013-03-11 22:30:00,
2013-03-11 19:00:00,52.3,52.0,29.79,East,91,0.0,0.0,99,0.20,,---,0.77,VWS V12.07,2013-03-11 23:00:00,
2013-03-11 19:30:00,51.9,51.6,29.74,East,91,0.0,0.0,99,0.21,,---,0.88,VWS V12.07,2013-03-11 23:30:00,
2013-03-11 20:00:00,52.0,51.7,29.71,SSW,204,0.0,0.0,99,0.14,,---,0.90,VWS V12.07,2013-03-12 00:00:00,
2013-03-11 20:30:00,51.7,51.4,29.73,NW,321,0.0,0.0,99,0.04,,---,0.90,VWS V12.07,2013-03-12 00:30:00,
2013-03-11 21:00:00,51.4,51.4,29.73,NW,319,0.0,0.0,100,0.00,,---,0.90,VWS V12.07,2013-03-12 01:00:00,
2013-03-11 21:30:00,50.8,50.8,29.73,NW,319,0.0,0.0,100,0.00,,---,0.90,VWS V12.07,2013-03-12 01:30:00,
2013-03-11 22:00:00,50.8,50.8,29.74,NW,319,0.0,0.0,100,0.00,,---,0.90,VWS V12.07,2013-03-12 02:00:00,
2013-03-11 22:30:00,51.3,51.3,29.74,NW,319,0.0,0.0,100,0.06,,---,0.96,VWS V12.07,2013-03-12 02:30:00,
2013-03-11 23:00:00,51.6,51.6,29.75,NNE,18,0.0,0.0,100,0.13,,---,1.02,VWS V12.07,2013-03-12 03:00:00,
2013-03-11 23:30:00,51.6,51.6,29.74,NNE,19,0.0,0.0,100,0.15,,---,1.10,VWS V12.07,2013-03-12 03:30:00,